Current Weather Conditions: station 63115

sailwx.info

Last reported at 2015-Mar-14 22:07 UTC.
Time now 2015-Mar-28 04:05 UTC

Location: N 61°36' E 001°18'.
View on Google Maps.

See reports from other nearby stations

  
Tides and Currents Weather Stations Pressure Air Temp Water Temp Dewpoint Dewpoint Depression Visibility Wind Speed Wind Dir Waves Ship Positions
date/time (UTC)wind fromknots sea level pressurealtimeterstation pressurevisibilityair tempwater tempwave heightnotes
2015-Mar-28 02:00 220 19 10.8 6.4 2.9
2015-Mar-28 01:00 220 18 10.8 8.3 2.9
2015-Mar-28 00:00 220 17 10.8 8.9 2.8
2015-Mar-27 23:00 210 15 10.8 8.1 2.6
2015-Mar-27 22:00 230 18 10.8 6.3 2.7
2015-Mar-27 21:00 220 19 5.4 8.0 2.5
2015-Mar-27 20:00 210 20 10.8 8.8 2.4
2015-Mar-27 19:00 210 20 5.4 9.1 2.3
2015-Mar-27 18:00 210 16 10.8 8.6 2.2
2015-Mar-27 17:00 220 14 10.8 6.3 2.1
2015-Mar-27 16:00 210 13 10.8 8.7 1.9
2015-Mar-27 15:00 220 10 10.8 7.5 1.7
2015-Mar-27 14:00 230 10 27.0 6.2 1.8
2015-Mar-27 13:00 240 8 27.0 5.8 1.8
2015-Mar-27 12:00 260 10 27.0 5.6 1.7
2015-Mar-27 11:00 280 8 27.0 5.4 1.6
2015-Mar-27 10:00 310 8 27.0 4.7 1.7
2015-Mar-27 09:00 250 9 10.8 5.6 1.8
2015-Mar-27 08:00 220 10 10.8 6.0 1.9
2015-Mar-27 07:00 210 12 10.8 7.3 1.9
2015-Mar-27 06:00 210 13 10.8 8.2 1.9
2015-Mar-27 05:00 220 11 10.8 7.4 1.9
2015-Mar-27 04:00 210 8 10.8 6.4 2.1
2015-Mar-27 03:00 210 10 10.8 6.5 2.2
2015-Mar-27 02:00 230 10 27.0 5.6 2.1
2015-Mar-27 01:00 220 10 27.0 6.6 2.2
2015-Mar-27 00:00 210 12 10.8 8.1 2.1
2015-Mar-26 23:00 190 14 27.0 7.3 2.1
2015-Mar-26 20:00 190 14 27.0 7.3 1.9
2015-Mar-26 16:00 130 8 27.0 5.8 2.0
2015-Mar-26 13:00 150 8 10.8 7.6 2.0
2015-Mar-26 12:00 170 8 27.0 6.6 2.1
2015-Mar-26 10:00 130 9 27.0 5.5 2.2
2015-Mar-26 05:00 130 18 10.8 6.5 2.0
2015-Mar-26 04:00 130 19 10.8 6.2 2.0